period_start,C,m1,H,J0,J1,J2,J3,J4,J5,JA,JB,JC,JD,JJ,JK,JN,#
2015-08-10 00:04:46,0.04,0.15,0.00,31.38,35.54,37.81,4.62,26.77,1002.00,2002.73,3257.11,3090.91,3385.45,349.73,333.01,9.11,0000 0000 0000 0000 000000
2015-08-10 00:09:48,0.07,0.15,0.00,31.37,35.52,37.80,4.56,26.68,1002.01,2002.91,3256.98,3090.47,3385.12,350.16,333.42,9.14,0000 0000 0000 0000 000000
2015-08-10 00:14:49,0.03,0.15,0.00,31.36,35.51,37.81,4.58,26.67,1002.08,2002.91,3256.38,3090.03,3384.99,350.26,333.55,9.17,0000 0000 0000 0000 000000
2015-08-10 00:19:50,0.07,0.15,0.00,31.35,35.50,37.79,4.56,26.62,1002.16,2002.98,3255.58,3089.75,3384.35,349.97,333.44,9.20,0000 0000 0000 0000 000000
2015-08-10 00:24:51,0.07,0.15,0.00,31.35,35.49,37.77,4.61,26.67,1002.08,2002.99,3254.30,3089.01,3383.66,350.18,333.44,9.23,0000 0000 0000 0000 000000
2015-08-10 00:29:53,0.01,0.15,0.00,31.33,35.47,37.76,4.60,26.73,1002.05,2002.99,3253.99,3088.94,3383.14,350.38,333.70,9.26,0000 0000 0000 0000 000000
2015-08-10 00:34:54,0.02,0.15,0.00,31.32,35.47,37.75,4.60,26.59,1002.12,2002.99,3253.85,3088.65,3383.01,350.68,334.10,9.29,0000 0000 0000 0000 000000
2015-08-10 00:39:55,0.04,0.16,0.00,31.30,35.45,37.75,4.56,26.75,1002.06,2002.99,3253.18,3088.16,3383.00,350.14,333.48,9.32,0000 0000 0000 0000 000000
2015-08-10 00:44:56,0.00,0.16,0.00,31.30,35.45,37.74,4.53,26.61,1002.00,2002.99,3253.00,3088.03,3382.98,349.77,333.03,9.35,0000 0000 0000 0000 000000
2015-08-10 00:49:58,0.00,0.16,0.00,31.27,35.43,37.73,4.54,26.72,1001.98,2002.99,3252.97,3088.01,3382.92,350.55,333.89,9.38,0000 0000 0000 0000 000000
2015-08-10 00:54:59,0.02,0.16,0.00,31.27,35.42,37.71,4.67,26.68,1002.01,2003.00,3252.55,3088.00,3382.63,350.19,333.40,9.41,0000 0000 0000 0000 000000
2015-08-10 01:00:00,0.02,0.16,0.00,31.26,35.40,37.70,4.56,26.66,1002.09,2003.01,3252.08,3088.00,3382.17,349.81,333.28,9.44,0000 0000 0000 0000 000000
2015-08-10 01:05:01,0.02,0.16,0.00,31.25,35.40,37.69,4.58,26.73,1002.18,2003.01,3251.95,3087.76,3382.01,349.91,333.42,9.47,0000 0000 0000 0000 000000
2015-08-10 01:10:03,0.06,0.16,0.00,31.24,35.38,37.68,4.58,26.68,1002.19,2003.06,3251.23,3087.10,3381.85,349.90,333.43,9.50,0000 0000 0000 0000 000000
2015-08-10 01:15:04,0.06,0.16,0.00,31.22,35.37,37.67,4.58,26.58,1002.28,2003.17,3250.55,3086.99,3381.09,349.91,333.34,9.52,0000 0000 0000 0000 000000
2015-08-10 01:20:05,0.06,0.16,0.00,31.21,35.35,37.66,4.61,26.63,1002.40,2003.31,3249.98,3086.43,3380.96,349.84,333.30,9.55,0000 0000 0000 0000 000000
2015-08-10 01:25:06,0.07,0.16,0.00,31.20,35.35,37.65,4.54,26.67,1002.44,2003.33,3249.29,3086.01,3380.33,349.78,333.40,9.58,0000 0000 0000 0000 000000
2015-08-10 01:30:07,0.06,0.17,0.00,31.17,35.33,37.63,4.63,26.66,1002.46,2003.51,3248.69,3085.70,3379.99,350.43,334.08,9.61,0000 0000 0000 0000 000000
2015-08-10 01:35:08,0.08,0.17,0.00,31.17,35.32,37.63,4.58,26.62,1002.46,2003.85,3248.05,3085.22,3379.90,350.04,333.74,9.64,0000 0000 0000 0000 000000
2015-08-10 01:40:10,0.04,0.17,0.00,31.15,35.30,37.62,4.58,26.72,1002.47,2003.91,3247.90,3085.04,3379.41,350.32,333.95,9.67,0000 0000 0000 0000 000000
2015-08-10 01:45:11,0.05,0.17,0.00,31.15,35.30,37.60,4.63,26.68,1002.47,2003.93,3247.06,3084.78,3378.97,350.46,333.84,9.70,0000 0000 0000 0000 000000
2015-08-10 01:50:12,-0.00,0.17,0.00,31.14,35.28,37.60,4.62,26.73,1002.48,2003.97,3247.00,3084.84,3378.95,350.20,333.95,9.73,0000 0000 0000 0000 000000
2015-08-10 01:55:13,-0.00,0.17,0.00,31.12,35.27,37.56,4.66,26.73,1002.55,2003.98,3247.00,3084.96,3378.98,350.51,334.24,9.76,0000 0000 0000 0000 000000
2015-08-10 02:00:14,0.00,0.17,0.00,31.12,35.25,37.56,4.56,26.78,1002.62,2003.99,3247.00,3084.97,3378.99,349.93,333.59,9.79,0000 0000 0000 0000 000000
2015-08-10 02:05:15,0.00,0.17,0.00,31.10,35.25,37.54,4.58,26.72,1002.66,2003.99,3247.00,3084.98,3378.99,350.47,334.24,9.82,0000 0000 0000 0000 000000
2015-08-10 02:10:17,0.00,0.17,0.00,31.10,35.23,37.53,4.67,26.75,1002.72,2003.99,3247.02,3084.99,3378.99,350.51,334.37,9.85,0000 0000 0000 0000 000000
2015-08-10 02:15:18,0.00,0.17,0.00,31.09,35.22,37.52,4.54,26.75,1002.86,2004.00,3247.02,3084.99,3378.99,349.31,333.21,9.88,0000 0000 0000 0000 000000
2015-08-10 02:20:19,0.00,0.17,0.00,31.07,35.20,37.51,4.64,26.82,1002.89,2004.00,3247.05,3084.99,3379.02,350.32,334.07,9.91,0000 0000 0000 0000 000000
2015-08-10 02:25:20,0.00,0.17,0.00,31.07,35.20,37.49,4.61,26.82,1002.92,2004.00,3247.01,3085.00,3379.01,349.83,333.71,9.93,0000 0000 0000 0000 000000
2015-08-10 02:30:21,-0.00,0.17,0.00,31.05,35.18,37.49,4.60,26.85,1002.93,2004.00,3247.02,3085.00,3379.03,350.27,334.50,9.96,0000 0000 0000 0000 000000
2015-08-10 02:35:22,0.00,0.17,0.00,31.04,35.17,37.47,4.66,26.79,1002.91,2004.03,3247.02,3085.01,3379.10,350.56,334.61,9.99,0000 0000 0000 0000 000000
2015-08-10 02:40:24,-0.00,0.17,0.00,31.02,35.15,37.46,4.61,26.81,1002.89,2004.05,3247.05,3085.02,3379.22,350.12,333.97,10.02,0000 0000 0000 0000 000000
2015-08-10 02:45:25,-0.01,0.17,0.00,31.02,35.15,37.45,4.56,26.72,1002.87,2004.14,3247.10,3085.18,3379.62,350.22,334.20,10.05,0000 0000 0000 0000 000000
2015-08-10 02:50:26,0.03,0.17,0.00,31.00,35.13,37.44,4.58,26.81,1002.86,2004.27,3247.04,3085.18,3379.65,349.69,333.80,10.08,0000 0000 0000 0000 000000
2015-08-10 02:55:27,-0.00,0.17,0.00,31.00,35.12,37.44,4.51,26.82,1002.81,2004.34,3247.05,3085.16,3379.57,349.74,333.94,10.11,0000 0000 0000 0000 000000
2015-08-10 03:00:28,0.04,0.17,0.00,30.98,35.11,37.41,4.56,26.84,1002.76,2004.46,3247.02,3085.16,3379.56,349.81,333.97,10.14,0000 0000 0000 0000 000000
2015-08-10 03:05:30,0.03,0.17,0.00,30.97,35.10,37.41,4.58,26.82,1002.82,2004.74,3247.02,3085.39,3379.78,349.81,333.68,10.17,0000 0000 0000 0000 000000
2015-08-10 03:10:31,0.00,0.18,0.00,30.95,35.08,37.39,4.52,26.71,1002.86,2004.92,3247.03,3085.55,3379.89,349.96,334.00,10.20,0000 0000 0000 0000 000000
2015-08-10 03:15:32,0.00,0.18,0.00,30.95,35.07,37.37,4.62,26.63,1002.92,2004.99,3247.03,3085.78,3379.99,350.12,334.20,10.23,0000 0000 0000 0000 000000
2015-08-10 03:20:33,-0.00,0.17,0.00,30.94,35.06,37.36,4.57,26.74,1002.94,2004.99,3247.06,3085.88,3379.98,350.06,334.12,10.26,0000 0000 0000 0000 000000
2015-08-10 03:25:35,0.05,0.18,0.00,30.92,35.05,37.34,4.63,26.80,1002.94,2004.99,3246.96,3085.18,3379.45,350.11,334.29,10.29,0000 0000 0000 0000 000000
2015-08-10 03:30:36,0.07,0.18,0.00,30.92,35.04,37.33,4.61,26.78,1002.95,2004.99,3245.96,3084.81,3378.90,350.31,334.32,10.32,0000 0000 0000 0000 000000
2015-08-10 03:35:37,0.09,0.18,0.00,30.91,35.02,37.32,4.59,26.73,1002.94,2004.99,3244.55,3083.96,3378.01,350.18,334.23,10.34,0000 0000 0000 0000 000000
2015-08-10 03:40:38,0.13,0.18,0.00,30.90,35.01,37.31,4.57,26.64,1002.95,2005.00,3242.73,3082.97,3377.00,349.74,334.09,10.37,0000 0000 0000 0000 000000
2015-08-10 03:45:40,0.09,0.19,0.00,30.88,35.00,37.30,4.59,26.69,1002.95,2005.00,3241.19,3082.08,3376.05,350.09,334.12,10.40,0000 0000 0000 0000 000000
2015-08-10 03:50:41,0.12,0.19,0.00,30.87,34.99,37.30,4.63,26.73,1002.96,2005.00,3239.58,3081.30,3375.21,350.00,334.28,10.43,0000 0000 0000 0000 000000
2015-08-10 03:55:42,0.05,0.19,0.00,30.85,34.97,37.27,4.62,26.76,1002.96,2005.02,3238.78,3080.80,3374.38,350.11,334.30,10.46,0000 0000 0000 0000 000000
2015-08-10 04:00:43,-0.00,0.19,0.00,30.85,34.96,37.27,4.61,26.87,1002.96,2005.06,3238.73,3080.79,3374.26,350.32,334.43,10.49,0000 0000 0000 0000 000000
2015-08-10 04:05:44,0.01,0.19,0.00,30.84,34.95,37.25,4.58,26.92,1002.96,2005.03,3238.30,3080.76,3374.11,350.05,334.26,10.52,0000 0000 0000 0000 000000
2015-08-10 04:10:46,0.00,0.19,0.00,30.82,34.94,37.23,4.60,26.72,1002.96,2005.22,3238.77,3080.93,3374.53,350.20,334.33,10.55,0000 0000 0000 0000 000000
2015-08-10 04:15:47,-0.02,0.19,0.00,30.82,34.92,37.22,4.63,26.73,1002.98,2005.24,3238.80,3080.94,3374.68,350.35,334.77,10.58,0000 0000 0000 0000 000000
2015-08-10 04:20:48,0.07,0.20,0.00,30.81,34.92,37.21,4.57,26.75,1002.97,2005.63,3238.94,3080.99,3374.93,350.28,334.39,10.61,0000 0000 0000 0000 000000
2015-08-10 04:25:50,0.09,0.20,0.00,30.80,34.90,37.20,4.55,26.88,1003.00,2005.83,3238.43,3080.67,3374.48,350.16,334.27,10.64,0000 0000 0000 0000 000000
2015-08-10 04:30:51,0.03,0.20,0.00,30.79,34.90,37.18,4.61,26.80,1002.98,2005.89,3237.82,3080.07,3373.97,349.94,334.05,10.67,0000 0000 0000 0000 000000
2015-08-10 04:35:52,0.12,0.20,0.00,30.77,34.88,37.17,4.58,26.83,1002.99,2005.95,3236.21,3079.19,3373.09,350.21,334.49,10.70,0000 0000 0000 0000 000000
2015-08-10 04:40:54,0.03,0.20,0.00,30.77,34.87,37.15,4.67,26.85,1003.12,2005.95,3235.47,3079.00,3372.86,350.16,334.44,10.73,0000 0000 0000 0000 000000
2015-08-10 04:45:55,0.02,0.20,0.00,30.76,34.85,37.14,4.60,26.82,1003.26,2005.96,3234.99,3078.98,3372.23,350.03,334.30,10.75,0000 0000 0000 0000 000000
2015-08-10 04:50:56,0.04,0.21,0.00,30.75,34.85,37.14,4.57,26.86,1003.38,2005.98,3234.25,3078.74,3372.02,349.71,334.26,10.78,0000 0000 0000 0000 000000
2015-08-10 04:55:57,0.01,0.21,0.00,30.74,34.83,37.14,4.56,26.75,1003.35,2005.97,3234.00,3078.33,3372.00,350.09,334.77,10.81,0000 0000 0000 0000 000000
2015-08-10 05:00:59,-0.01,0.21,0.00,30.72,34.82,37.11,4.62,26.89,1003.36,2005.99,3234.00,3078.57,3372.00,350.21,334.73,10.84,0000 0000 0000 0000 000000
2015-08-10 05:06:00,0.00,0.21,0.00,30.72,34.81,37.10,4.59,26.88,1003.37,2005.99,3233.97,3078.40,3372.00,350.19,334.57,10.87,0000 0000 0000 0000 000000
2015-08-10 05:11:02,-0.01,0.21,0.00,30.70,34.80,37.09,4.64,26.85,1003.40,2005.99,3233.99,3078.60,3372.00,350.21,334.76,10.90,0000 0000 0000 0000 000000
2015-08-10 05:16:03,-0.00,0.21,0.00,30.70,34.79,37.08,4.63,26.77,1003.41,2005.99,3233.99,3078.76,3372.00,350.26,334.82,10.93,0000 0000 0000 0000 000000
2015-08-10 05:21:04,-0.00,0.21,0.00,30.70,34.77,37.06,4.62,26.76,1003.42,2005.99,3233.99,3078.87,3372.01,350.14,334.94,10.96,0000 0000 0000 0000 000000
2015-08-10 05:26:05,-0.00,0.21,0.00,30.68,34.76,37.04,4.63,26.88,1003.43,2005.99,3233.99,3078.93,3372.04,350.28,334.74,10.99,0000 0000 0000 0000 000000
2015-08-10 05:31:07,0.00,0.21,0.00,30.67,34.75,37.04,4.53,26.87,1003.43,2005.99,3233.99,3078.98,3372.12,349.95,334.58,11.02,0000 0000 0000 0000 000000
2015-08-10 05:36:08,-0.00,0.21,0.00,30.66,34.75,37.02,4.65,26.88,1003.43,2006.01,3233.99,3078.99,3372.33,350.42,335.03,11.05,0000 0000 0000 0000 000000
2015-08-10 05:41:09,-0.01,0.21,0.00,30.65,34.73,37.00,4.61,26.77,1003.44,2006.03,3234.00,3078.99,3372.69,350.31,334.78,11.08,0000 0000 0000 0000 000000
2015-08-10 05:46:10,0.01,0.21,0.00,30.64,34.72,37.01,4.59,26.88,1003.44,2006.05,3234.00,3078.99,3372.72,350.21,334.61,11.11,0000 0000 0000 0000 000000
2015-08-10 05:51:11,0.00,0.21,0.00,30.62,34.70,37.00,4.67,26.85,1003.45,2006.08,3234.01,3079.00,3372.79,350.82,335.43,11.14,0000 0000 0000 0000 000000
2015-08-10 05:56:12,0.01,0.21,0.00,30.62,34.70,36.98,4.57,26.80,1003.44,2006.16,3234.01,3079.00,3372.87,350.55,335.23,11.16,0000 0000 0000 0000 000000
2015-08-10 06:01:14,0.03,0.21,0.00,30.60,34.68,36.99,4.62,26.90,1003.48,2006.40,3234.01,3079.04,3372.96,350.13,334.66,11.19,0000 0000 0000 0000 000000
2015-08-10 06:06:15,0.03,0.21,0.00,30.60,34.67,36.97,4.65,26.98,1003.48,2006.56,3234.00,3079.03,3372.92,350.40,335.15,11.22,0000 0000 0000 0000 000000
2015-08-10 06:11:16,0.05,0.21,0.00,30.58,34.66,36.96,4.65,26.92,1003.47,2006.82,3233.99,3079.01,3372.90,350.13,334.66,11.25,0000 0000 0000 0000 000000
2015-08-10 06:16:18,0.03,0.21,0.00,30.56,34.65,36.95,4.56,26.87,1003.49,2006.89,3233.66,3079.00,3372.63,349.98,334.48,11.28,0000 0000 0000 0000 000000
2015-08-10 06:21:19,0.03,0.21,0.00,30.55,34.64,36.94,4.61,26.93,1003.61,2006.91,3233.04,3079.00,3372.14,349.81,334.77,11.31,0000 0000 0000 0000 000000
2015-08-10 06:26:20,0.01,0.21,0.00,30.52,34.62,36.94,4.57,26.87,1003.75,2006.95,3232.99,3078.98,3372.02,350.00,335.04,11.34,0000 0000 0000 0000 000000
2015-08-10 06:31:22,0.01,0.21,0.00,30.50,34.61,36.92,4.58,26.92,1003.88,2006.98,3232.62,3078.94,3372.00,350.28,334.98,11.37,0000 0000 0000 0000 000000
2015-08-10 06:36:23,0.01,0.21,0.00,30.49,34.60,36.91,4.57,26.96,1003.92,2006.99,3232.23,3078.93,3372.00,350.19,335.09,11.40,0000 0000 0000 0000 000000
2015-08-10 06:41:25,-0.00,0.21,0.00,30.47,34.59,36.90,4.62,26.88,1003.92,2006.99,3232.09,3078.94,3372.00,350.30,335.26,11.43,0000 0000 0000 0000 000000
2015-08-10 06:46:26,0.00,0.21,0.00,30.46,34.57,36.90,4.60,26.91,1003.93,2006.99,3232.08,3078.96,3372.00,349.58,334.61,11.46,0000 0000 0000 0000 000000
2015-08-10 06:51:27,-0.00,0.21,0.00,30.45,34.57,36.89,4.59,26.88,1003.93,2006.99,3232.07,3078.97,3372.00,350.06,334.91,11.49,0000 0000 0000 0000 000000
2015-08-10 06:56:28,-0.00,0.21,0.00,30.43,34.55,36.88,4.60,26.91,1003.93,2006.99,3232.18,3078.99,3372.02,349.44,334.37,11.52,0000 0000 0000 0000 000000
2015-08-10 07:01:29,-0.00,0.21,0.00,30.42,34.55,36.87,4.62,27.02,1003.95,2006.99,3232.34,3078.99,3372.05,350.39,335.20,11.55,0000 0000 0000 0000 000000
2015-08-10 07:06:30,0.01,0.21,0.00,30.40,34.52,36.86,4.56,26.96,1004.00,2007.01,3232.15,3078.99,3372.03,350.64,335.61,11.57,0000 0000 0000 0000 000000
2015-08-10 07:11:31,-0.01,0.21,0.00,30.39,34.52,36.84,4.60,26.84,1004.01,2007.04,3232.53,3078.99,3372.18,349.93,335.02,11.60,0000 0000 0000 0000 000000
2015-08-10 07:16:32,-0.01,0.21,0.00,30.36,34.50,36.83,4.57,26.84,1004.17,2007.08,3232.64,3079.01,3372.48,349.91,335.02,11.63,0000 0000 0000 0000 000000
2015-08-10 07:21:33,0.02,0.21,0.00,30.35,34.49,36.81,4.63,26.86,1004.33,2007.14,3232.46,3079.02,3372.49,350.51,335.65,11.66,0000 0000 0000 0000 000000
2015-08-10 07:26:35,-0.01,0.21,0.00,30.34,34.47,36.80,4.55,26.87,1004.41,2007.23,3232.69,3079.04,3372.63,349.85,335.11,11.69,0000 0000 0000 0000 000000
2015-08-10 07:31:36,0.04,0.21,0.00,30.32,34.46,36.79,4.63,26.84,1004.41,2007.56,3232.92,3079.29,3372.90,350.26,335.34,11.72,0000 0000 0000 0000 000000
2015-08-10 07:36:37,0.01,0.21,0.00,30.31,34.45,36.79,4.58,26.88,1004.41,2007.67,3232.95,3079.56,3372.97,349.80,335.07,11.75,0000 0000 0000 0000 000000
2015-08-10 07:41:38,0.05,0.21,0.00,30.30,34.43,36.77,4.63,26.90,1004.41,2007.78,3232.45,3079.27,3372.89,350.59,335.84,11.78,0000 0000 0000 0000 000000
2015-08-10 07:46:39,0.01,0.22,0.00,30.28,34.42,36.76,4.62,26.90,1004.41,2007.95,3232.25,3079.41,3372.88,350.09,335.27,11.81,0000 0000 0000 0000 000000
2015-08-10 07:51:41,0.05,0.22,0.00,30.26,34.40,36.75,4.56,26.91,1004.41,2007.95,3231.93,3079.06,3372.28,349.62,335.06,11.84,0000 0000 0000 0000 000000
2015-08-10 07:56:42,0.02,0.22,0.00,30.25,34.40,36.74,4.58,26.86,1004.42,2007.97,3231.14,3079.00,3372.02,349.72,335.16,11.87,0000 0000 0000 0000 000000
2015-08-10 08:01:43,0.00,0.22,0.00,30.23,34.38,36.72,4.65,26.97,1004.42,2007.99,3230.98,3079.00,3372.00,350.31,335.72,11.90,0000 0000 0000 0000 000000
2015-08-10 08:06:45,0.02,0.22,0.00,30.22,34.36,36.71,4.63,26.98,1004.42,2007.99,3230.41,3078.97,3371.99,350.02,335.52,11.93,0000 0000 0000 0000 000000
2015-08-10 08:11:46,0.01,0.22,0.00,30.20,34.35,36.70,4.57,26.87,1004.45,2007.99,3230.16,3078.97,3371.98,349.69,335.14,11.95,0000 0000 0000 0000 000000
2015-08-10 08:16:47,0.00,0.22,0.00,30.20,34.34,36.68,4.61,26.85,1004.46,2007.99,3230.01,3078.97,3371.98,350.07,335.61,11.98,0000 0000 0000 0000 000000
2015-08-10 08:21:48,0.00,0.22,0.00,30.18,34.32,36.66,4.61,26.93,1004.44,2007.99,3230.03,3078.97,3371.99,349.99,335.24,12.01,0000 0000 0000 0000 000000
2015-08-10 08:26:49,-0.00,0.22,0.00,30.16,34.30,36.65,4.62,26.97,1004.52,2007.99,3230.08,3078.99,3371.99,350.12,335.47,12.04,0000 0000 0000 0000 000000
2015-08-10 08:31:50,0.01,0.22,0.00,30.14,34.30,36.65,4.61,26.97,1004.70,2008.00,3230.15,3078.99,3371.99,350.22,335.60,12.07,0000 0000 0000 0000 000000
2015-08-10 08:36:51,-0.00,0.22,0.00,30.12,34.27,36.62,4.61,26.88,1004.77,2008.05,3230.37,3078.99,3372.02,349.83,335.56,12.10,0000 0000 0000 0000 000000
2015-08-10 08:41:53,-0.01,0.22,0.00,30.10,34.26,36.63,4.61,26.76,1004.86,2008.09,3230.82,3079.04,3372.09,350.42,336.12,12.13,0000 0000 0000 0000 000000
2015-08-10 08:46:54,0.03,0.22,0.00,30.10,34.25,36.60,4.63,26.85,1004.87,2008.29,3230.95,3079.18,3372.40,350.17,335.72,12.16,0000 0000 0000 0000 000000
2015-08-10 08:51:55,0.02,0.22,0.00,30.07,34.22,36.58,4.60,26.98,1004.90,2008.45,3230.85,3079.18,3372.35,349.60,335.35,12.19,0000 0000 0000 0000 000000
2015-08-10 08:56:56,0.09,0.22,0.00,30.05,34.21,36.57,4.55,26.87,1004.90,2008.73,3230.30,3079.05,3372.13,349.93,335.50,12.22,0000 0000 0000 0000 000000
2015-08-10 09:01:58,0.01,0.22,0.00,30.04,34.20,36.55,4.58,26.92,1004.90,2008.84,3230.04,3079.06,3372.06,349.58,335.31,12.25,0000 0000 0000 0000 000000
2015-08-10 09:06:59,0.00,0.22,0.00,30.02,34.18,36.52,4.66,26.96,1004.91,2008.86,3230.03,3079.04,3372.07,350.06,335.66,12.28,0000 0000 0000 0000 000000
2015-08-10 09:12:00,0.00,0.22,0.00,30.00,34.17,36.52,4.62,26.93,1004.91,2008.96,3230.05,3079.13,3372.21,350.51,336.29,12.31,0000 0000 0000 0000 000000
2015-08-10 09:17:01,-0.02,0.22,0.00,29.98,34.15,36.52,4.69,26.89,1004.91,2008.98,3230.15,3079.42,3372.67,350.36,336.03,12.34,0000 0000 0000 0000 000000
2015-08-10 09:22:03,-0.02,0.22,0.00,29.96,34.13,36.50,4.55,26.89,1004.91,2008.99,3230.47,3079.80,3372.88,349.45,335.24,12.36,0000 0000 0000 0000 000000
2015-08-10 09:27:04,0.00,0.22,0.00,29.94,34.12,36.48,4.59,26.89,1004.91,2008.99,3230.42,3079.91,3372.93,349.95,335.53,12.39,0000 0000 0000 0000 000000
2015-08-10 09:32:05,-0.01,0.22,0.00,29.92,34.10,36.47,4.71,26.96,1004.91,2008.99,3230.69,3079.98,3372.96,350.61,336.44,12.42,0000 0000 0000 0000 000000
2015-08-10 09:37:06,-0.00,0.22,0.00,29.91,34.08,36.44,4.63,26.95,1004.93,2008.99,3230.84,3079.99,3372.99,349.91,335.63,12.45,0000 0000 0000 0000 000000
2015-08-10 09:42:08,0.00,0.22,0.00,29.90,34.07,36.41,4.65,26.89,1005.03,2008.99,3230.95,3079.99,3372.99,350.22,336.21,12.48,0000 0000 0000 0000 000000
2015-08-10 09:47:09,0.00,0.22,0.00,29.87,34.05,36.41,4.63,26.94,1005.26,2009.01,3230.97,3080.01,3372.99,350.10,336.19,12.51,0000 0000 0000 0000 000000
2015-08-10 09:52:10,0.01,0.22,0.00,29.86,34.03,36.39,4.57,26.92,1005.30,2009.05,3230.99,3080.04,3373.06,349.72,336.12,12.54,0000 0000 0000 0000 000000
2015-08-10 09:57:12,-0.00,0.22,0.00,29.84,34.01,36.35,4.61,26.89,1005.35,2009.09,3230.99,3080.07,3373.07,350.15,336.18,12.57,0000 0000 0000 0000 000000
2015-08-10 10:02:13,0.00,0.22,0.00,29.82,34.00,36.37,4.58,26.90,1005.38,2009.15,3230.99,3080.23,3373.18,349.83,335.94,12.60,0000 0000 0000 0000 000000
2015-08-10 10:07:14,0.02,0.22,0.00,29.81,33.97,36.33,4.66,26.93,1005.39,2009.42,3231.02,3080.69,3373.56,350.35,336.48,12.63,0000 0000 0000 0000 000000
2015-08-10 10:12:16,0.02,0.22,0.00,29.79,33.96,36.31,4.61,26.92,1005.39,2009.64,3231.02,3080.89,3373.89,350.30,336.43,12.66,0000 0000 0000 0000 000000
2015-08-10 10:17:17,0.03,0.22,0.00,29.76,33.95,36.30,4.60,26.94,1005.39,2009.81,3231.04,3080.94,3373.96,349.65,335.94,12.69,0000 0000 0000 0000 000000
2015-08-10 10:22:18,0.00,0.22,0.00,29.74,33.92,36.27,4.67,26.95,1005.41,2009.95,3231.26,3080.99,3373.99,349.97,336.34,12.72,0000 0000 0000 0000 000000
2015-08-10 10:27:19,-0.01,0.22,0.00,29.72,33.90,36.24,4.63,26.88,1005.42,2009.98,3231.51,3080.99,3373.99,350.40,336.65,12.74,0000 0000 0000 0000 000000
2015-08-10 10:32:20,-0.01,0.22,0.00,29.70,33.89,36.24,4.66,26.98,1005.46,2009.99,3231.88,3081.01,3374.03,350.48,336.73,12.77,0000 0000 0000 0000 000000
2015-08-10 10:37:21,-0.01,0.22,0.00,29.67,33.87,36.25,4.61,27.02,1005.68,2009.99,3231.98,3081.10,3374.21,349.67,335.89,12.80,0000 0000 0000 0000 000000
2015-08-10 10:42:22,-0.02,0.22,0.00,29.66,33.85,36.20,4.65,27.05,1005.84,2009.99,3231.99,3081.31,3374.49,350.23,336.68,12.83,0000 0000 0000 0000 000000
2015-08-10 10:47:23,-0.02,0.22,0.00,29.65,33.83,36.20,4.63,26.98,1005.87,2010.01,3231.99,3081.83,3374.85,349.85,336.40,12.86,0000 0000 0000 0000 000000
2015-08-10 10:52:25,-0.00,0.22,0.00,29.62,33.81,36.19,4.60,27.01,1005.86,2010.02,3232.00,3081.95,3374.96,349.73,336.12,12.89,0000 0000 0000 0000 000000
2015-08-10 10:57:26,0.00,0.22,0.00,29.60,33.80,36.18,4.63,27.02,1005.85,2010.05,3232.04,3081.98,3374.98,349.76,336.38,12.92,0000 0000 0000 0000 000000
2015-08-10 11:02:27,0.00,0.22,0.00,29.59,33.77,36.12,4.67,27.05,1005.85,2010.09,3232.08,3081.99,3374.99,350.05,336.81,12.95,0000 0000 0000 0000 000000
2015-08-10 11:07:29,0.05,0.22,0.00,29.57,33.75,36.10,4.58,27.07,1005.85,2010.30,3232.18,3081.99,3375.00,349.96,336.65,12.98,0000 0000 0000 0000 000000
2015-08-10 11:12:30,0.02,0.22,0.00,29.54,33.73,36.09,4.63,26.98,1005.87,2010.65,3232.47,3082.01,3375.02,349.99,336.67,13.01,0000 0000 0000 0000 000000
2015-08-10 11:17:31,0.01,0.22,0.00,29.52,33.71,36.09,4.63,26.86,1005.87,2010.81,3232.80,3082.12,3375.20,350.39,337.01,13.04,0000 0000 0000 0000 000000
2015-08-10 11:22:32,-0.02,0.22,0.00,29.50,33.70,36.06,4.67,27.00,1005.87,2010.96,3232.99,3082.61,3375.79,350.01,336.53,13.07,0000 0000 0000 0000 000000
2015-08-10 11:27:33,-0.01,0.22,0.00,29.48,33.67,36.04,4.61,27.10,1005.87,2010.99,3232.98,3082.76,3375.89,349.77,336.19,13.10,0000 0000 0000 0000 000000
2015-08-10 11:32:35,-0.01,0.22,0.00,29.47,33.65,36.01,4.69,27.07,1005.87,2010.99,3232.99,3082.97,3375.99,349.97,336.49,13.13,0000 0000 0000 0000 000000
2015-08-10 11:37:36,0.00,0.22,0.00,29.45,33.63,35.99,4.63,27.06,1005.89,2010.99,3233.00,3082.99,3375.99,350.34,337.10,13.15,0000 0000 0000 0000 000000
2015-08-10 11:42:37,-0.00,0.22,0.00,29.41,33.61,35.98,4.63,26.96,1005.90,2010.99,3233.05,3082.99,3375.99,349.95,336.94,13.18,0000 0000 0000 0000 000000
2015-08-10 11:47:39,-0.00,0.22,0.00,29.40,33.60,35.96,4.62,26.98,1005.99,2010.99,3233.14,3083.00,3376.01,350.17,336.98,13.21,0000 0000 0000 0000 000000
2015-08-10 11:52:40,-0.03,0.22,0.00,29.37,33.57,35.93,4.61,26.95,1005.96,2010.99,3233.66,3083.11,3376.15,350.21,336.97,13.24,0000 0000 0000 0000 000000
2015-08-10 11:57:41,-0.03,0.22,0.00,29.35,33.55,35.91,4.65,27.02,1005.98,2011.03,3233.92,3083.54,3376.65,349.91,336.87,13.27,0000 0000 0000 0000 000000
2015-08-10 12:02:42,-0.01,0.22,0.00,29.33,33.53,35.90,4.65,27.13,1006.06,2011.04,3233.97,3083.73,3376.84,350.21,337.02,13.30,0000 0000 0000 0000 000000
2015-08-10 12:07:44,0.01,0.22,0.00,29.31,33.51,35.89,4.67,27.01,1006.12,2011.14,3233.99,3083.91,3376.91,350.84,337.50,13.33,0000 0000 0000 0000 000000
2015-08-10 12:12:45,0.05,0.22,0.00,29.28,33.49,35.86,4.60,27.01,1006.27,2011.46,3234.01,3083.99,3376.99,349.45,336.46,13.36,0000 0000 0000 0000 000000
2015-08-10 12:17:46,0.04,0.22,0.00,29.26,33.46,35.85,4.61,27.12,1006.34,2011.69,3234.03,3083.99,3376.99,349.55,336.54,13.39,0000 0000 0000 0000 000000
2015-08-10 12:22:47,0.00,0.22,0.00,29.23,33.45,35.81,4.63,26.97,1006.35,2011.90,3234.23,3084.03,3377.02,350.05,337.26,13.42,0000 0000 0000 0000 000000
2015-08-10 12:27:48,-0.01,0.22,0.00,29.20,33.42,35.80,4.60,26.99,1006.36,2011.96,3234.49,3084.14,3377.18,349.76,337.10,13.45,0000 0000 0000 0000 000000
2015-08-10 12:32:50,-0.05,0.22,0.00,29.18,33.40,35.78,4.59,27.04,1006.36,2011.99,3234.94,3084.72,3377.79,349.80,336.85,13.48,0000 0000 0000 0000 000000
2015-08-10 12:37:51,-0.01,0.22,0.00,29.16,33.38,35.74,4.61,27.12,1006.36,2011.99,3234.99,3084.96,3377.98,349.72,336.92,13.51,0000 0000 0000 0000 000000
2015-08-10 12:42:53,0.00,0.22,0.00,29.14,33.36,35.74,4.63,27.02,1006.36,2012.00,3234.99,3084.99,3377.99,350.03,337.11,13.54,0000 0000 0000 0000 000000
2015-08-10 12:47:54,0.00,0.22,0.00,29.11,33.34,35.72,4.68,27.07,1006.37,2012.01,3235.00,3084.99,3378.01,350.44,337.75,13.56,0000 0000 0000 0000 000000
2015-08-10 12:52:54,0.02,0.22,0.00,29.09,33.31,35.71,4.60,27.03,1006.37,2012.09,3235.00,3084.99,3378.04,349.80,336.86,13.59,0000 0000 0000 0000 000000
2015-08-10 12:57:56,0.00,0.22,0.00,29.06,33.29,35.67,4.70,27.06,1006.37,2012.11,3235.00,3084.99,3378.03,350.64,337.96,13.62,0000 0000 0000 0000 000000
2015-08-10 13:02:57,0.04,0.22,0.00,29.04,33.27,35.66,4.61,27.19,1006.37,2012.44,3235.00,3085.02,3378.07,349.43,336.87,13.65,0000 0000 0000 0000 000000